Time,TemperatureF,DewpointF,PressureIn,WindDirection,WindDirectionDegrees,WindSpeedMPH,WindSpeedGustMPH,Humidity,HourlyPrecipIn,Conditions,Clouds,dailyrainin,SoftwareType,DateUTC
2013-03-04 00:01:00,23.0,19.0,-100.00,SSE,160,0.0,8.0,81,0.00,,,-99.99,,2013-03-04 05:01:00,
2013-03-04 00:11:00,22.0,18.0,-100.00,SE,129,0.0,8.0,81,2.83,,,-99.99,,2013-03-04 05:11:00,
2013-03-04 00:22:00,22.0,19.0,-100.00,ESE,108,0.0,8.0,82,1.14,,,-99.99,,2013-03-04 05:22:00,
2013-03-04 00:32:00,24.0,19.0,-100.00,SE,145,0.0,8.0,82,2.83,,,-99.99,,2013-03-04 05:32:00,
2013-03-04 00:42:00,23.0,19.0,-100.00,ESE,121,0.0,8.0,84,6.22,,,-99.99,,2013-03-04 05:42:00,
2013-03-04 00:52:00,24.0,21.0,-100.00,SE,135,0.0,8.0,84,1.14,,,-99.99,,2013-03-04 05:52:00,
2013-03-04 01:02:00,24.0,21.0,-100.00,ESE,104,0.0,8.0,85,1.14,,,-99.99,,2013-03-04 06:02:00,
2013-03-04 01:11:00,24.0,21.0,-100.00,SE,135,0.0,8.0,85,1.14,,,-99.99,,2013-03-04 06:11:00,
2013-03-04 01:22:00,23.0,19.0,-100.00,East,83,1.0,8.0,84,1.14,,,-99.99,,2013-03-04 06:22:00,
2013-03-04 01:32:00,23.0,19.0,-100.00,East,94,0.0,8.0,84,0.00,,,-99.99,,2013-03-04 06:32:00,
2013-03-04 01:42:00,23.0,19.0,-100.00,ENE,66,0.0,8.0,81,7.36,,,-99.99,,2013-03-04 06:42:00,
2013-03-04 01:51:00,23.0,19.0,-100.00,SSE,153,1.0,8.0,81,0.00,,,-99.99,,2013-03-04 06:51:00,
2013-03-04 02:02:00,24.0,19.0,-100.00,SE,144,0.0,8.0,78,0.00,,,-99.99,,2013-03-04 07:02:00,
2013-03-04 02:11:00,23.0,19.0,-100.00,ESE,111,0.0,8.0,80,0.00,,,-99.99,,2013-03-04 07:11:00,
2013-03-04 02:22:00,24.0,19.0,-100.00,SSE,159,0.0,8.0,78,0.00,,,-99.99,,2013-03-04 07:22:00,
2013-03-04 02:32:00,24.0,19.0,-100.00,SE,125,0.0,8.0,78,0.00,,,-99.99,,2013-03-04 07:32:00,
2013-03-04 02:42:00,23.0,18.0,-100.00,ENE,77,0.0,8.0,78,0.00,,,-99.99,,2013-03-04 07:42:00,
2013-03-04 02:52:00,24.0,19.0,-100.00,NE,45,0.0,8.0,80,0.00,,,-99.99,,2013-03-04 07:52:00,
2013-03-04 03:02:00,24.0,19.0,-100.00,ENE,64,0.0,8.0,80,0.00,,,-99.99,,2013-03-04 08:02:00,
2013-03-04 03:12:00,22.0,18.0,-100.00,NE,46,0.0,8.0,81,0.00,,,-99.99,,2013-03-04 08:12:00,
2013-03-04 03:22:00,23.0,19.0,-100.00,NE,56,0.0,8.0,80,0.00,,,-99.99,,2013-03-04 08:22:00,
2013-03-04 03:32:00,23.0,19.0,-100.00,NE,38,0.0,8.0,81,0.00,,,-99.99,,2013-03-04 08:32:00,
2013-03-04 03:42:00,23.0,19.0,-100.00,NE,38,0.0,8.0,81,0.00,,,-99.99,,2013-03-04 08:42:00,
2013-03-04 03:52:00,23.0,19.0,-100.00,NE,38,0.0,8.0,81,0.00,,,-99.99,,2013-03-04 08:52:00,
2013-03-04 04:02:00,23.0,19.0,-100.00,NE,38,0.0,8.0,81,0.00,,,-99.99,,2013-03-04 09:02:00,
2013-03-04 10:02:00,28.0,19.0,-100.00,SE,138,0.0,0.0,68,0.00,,,-99.99,,2013-03-04 15:02:00,
2013-03-04 10:11:00,28.0,18.0,-100.00,ESE,103,1.0,2.0,60,0.00,,,-99.99,,2013-03-04 15:11:00,
2013-03-04 10:22:00,29.0,18.0,-100.00,SE,134,3.0,4.0,60,0.00,,,-99.99,,2013-03-04 15:22:00,
2013-03-04 10:32:00,29.0,18.0,-100.00,ESE,117,2.0,4.0,59,0.00,,,-99.99,,2013-03-04 15:32:00,
2013-03-04 10:42:00,30.0,18.0,-100.00,ESE,104,2.0,4.0,56,0.00,,,-99.99,,2013-03-04 15:42:00,
2013-03-04 10:52:00,30.0,16.0,-100.00,ESE,122,2.0,4.0,53,0.00,,,-99.99,,2013-03-04 15:52:00,
2013-03-04 11:03:00,30.0,16.0,-100.00,ESE,122,4.0,4.0,53,0.00,,,-99.99,,2013-03-04 16:03:00,
2013-03-04 11:11:00,31.0,18.0,-100.00,ESE,118,2.0,4.0,54,0.00,,,-99.99,,2013-03-04 16:11:00,
2013-03-04 11:21:00,31.0,18.0,-100.00,ESE,118,2.0,4.0,54,0.00,,,-99.99,,2013-03-04 16:21:00,
2013-03-04 11:32:00,30.0,16.0,-100.00,NE,48,1.0,4.0,54,0.00,,,-99.99,,2013-03-04 16:32:00,
2013-03-04 11:42:00,32.0,16.0,-100.00,East,93,3.0,6.0,50,0.00,,,-99.99,,2013-03-04 16:42:00,
2013-03-04 11:52:00,32.0,16.0,-100.00,SSE,156,2.0,6.0,50,0.00,,,-99.99,,2013-03-04 16:52:00,
2013-03-04 12:02:00,32.0,16.0,-100.00,ESE,104,2.0,6.0,49,0.00,,,-99.99,,2013-03-04 17:02:00,
2013-03-04 12:11:00,33.0,16.0,-100.00,ESE,118,3.0,6.0,49,0.00,,,-99.99,,2013-03-04 17:11:00,
2013-03-04 12:22:00,32.0,16.0,-100.00,SE,127,2.0,6.0,49,0.00,,,-99.99,,2013-03-04 17:22:00,
2013-03-04 12:32:00,30.0,16.0,-100.00,ENE,77,2.0,6.0,51,0.00,,,-99.99,,2013-03-04 17:32:00,
2013-03-04 12:42:00,31.0,18.0,-100.00,SE,146,2.0,6.0,53,0.00,,,-99.99,,2013-03-04 17:42:00,
2013-03-04 12:52:00,32.0,16.0,-100.00,SE,142,2.0,6.0,51,0.00,,,-99.99,,2013-03-04 17:52:00,
2013-03-04 13:02:00,31.0,16.0,-100.00,East,94,2.0,6.0,50,0.00,,,-99.99,,2013-03-04 18:02:00,
2013-03-04 13:11:00,31.0,18.0,-100.00,SE,128,3.0,6.0,54,0.00,,,-99.99,,2013-03-04 18:11:00,
2013-03-04 13:22:00,33.0,18.0,-100.00,SE,128,2.0,6.0,51,0.00,,,-99.99,,2013-03-04 18:22:00,
2013-03-04 13:32:00,33.0,18.0,-100.00,SE,128,2.0,6.0,51,0.00,,,-99.99,,2013-03-04 18:32:00,
2013-03-04 13:42:00,31.0,18.0,-100.00,SSE,156,2.0,6.0,53,0.00,,,-99.99,,2013-03-04 18:42:00,
2013-03-04 13:52:00,32.0,19.0,-100.00,NNE,31,1.0,6.0,56,0.00,,,-99.99,,2013-03-04 18:52:00,
2013-03-04 14:02:00,32.0,21.0,-100.00,SSE,153,1.0,6.0,59,0.00,,,-99.99,,2013-03-04 19:02:00,
2013-03-04 14:12:00,33.0,19.0,-100.00,SE,135,2.0,6.0,54,0.00,,,-99.99,,2013-03-04 19:12:00,
2013-03-04 14:22:00,32.0,18.0,-100.00,ENE,64,2.0,6.0,53,0.00,,,-99.99,,2013-03-04 19:22:00,
2013-03-04 14:32:00,35.0,21.0,-100.00,East,93,1.0,6.0,53,0.00,,,-99.99,,2013-03-04 19:32:00,
2013-03-04 14:42:00,34.0,19.0,-100.00,ENE,72,2.0,6.0,54,0.00,,,-99.99,,2013-03-04 19:42:00,
2013-03-04 14:52:00,33.0,19.0,-100.00,East,81,1.0,6.0,54,0.00,,,-99.99,,2013-03-04 19:52:00,
2013-03-04 15:02:00,33.0,19.0,-100.00,East,101,3.0,6.0,55,0.00,,,-99.99,,2013-03-04 20:02:00,
2013-03-04 15:12:00,34.0,19.0,-100.00,East,83,1.0,6.0,55,0.00,,,-99.99,,2013-03-04 20:12:00,
2013-03-04 15:22:00,34.0,19.0,-100.00,East,83,1.0,6.0,55,0.00,,,-99.99,,2013-03-04 20:22:00,
2013-03-04 15:32:00,32.0,18.0,-100.00,ENE,63,2.0,6.0,54,0.00,,,-99.99,,2013-03-04 20:32:00,
2013-03-04 15:42:00,31.0,18.0,-100.00,NE,53,2.0,6.0,54,0.00,,,-99.99,,2013-03-04 20:42:00,
2013-03-04 15:53:00,33.0,19.0,-100.00,SSE,149,2.0,6.0,55,0.00,,,-99.99,,2013-03-04 20:53:00,
2013-03-04 16:02:00,33.0,19.0,-100.00,East,88,1.0,6.0,54,0.00,,,-99.99,,2013-03-04 21:02:00,
2013-03-04 16:12:00,33.0,19.0,-100.00,East,88,1.0,6.0,54,0.00,,,-99.99,,2013-03-04 21:12:00,
2013-03-04 16:22:00,33.0,19.0,-100.00,East,88,1.0,6.0,54,0.00,,,-99.99,,2013-03-04 21:22:00,
2013-03-04 16:32:00,33.0,19.0,-100.00,ESE,103,1.0,6.0,55,0.00,,,-99.99,,2013-03-04 21:32:00,
2013-03-04 16:43:00,32.0,18.0,-100.00,SE,135,0.0,6.0,54,0.00,,,-99.99,,2013-03-04 21:43:00,
2013-03-04 16:53:00,32.0,18.0,-100.00,SE,135,0.0,6.0,54,0.00,,,-99.99,,2013-03-04 21:53:00,
2013-03-04 17:02:00,33.0,19.0,-100.00,East,88,1.0,6.0,54,0.00,,,-99.99,,2013-03-04 22:02:00,
2013-03-04 17:12:00,32.0,18.0,-100.00,ESE,111,1.0,6.0,53,0.00,,,-99.99,,2013-03-04 22:12:00,
2013-03-04 17:22:00,32.0,18.0,-100.00,ESE,120,2.0,6.0,53,0.00,,,-99.99,,2013-03-04 22:22:00,
2013-03-04 17:32:00,32.0,18.0,-100.00,ESE,120,2.0,6.0,53,0.00,,,-99.99,,2013-03-04 22:32:00,
2013-03-04 17:42:00,32.0,19.0,-100.00,ESE,115,1.0,6.0,58,0.00,,,-99.99,,2013-03-04 22:42:00,
2013-03-04 17:52:00,31.0,18.0,-100.00,ESE,108,0.0,6.0,56,0.00,,,-99.99,,2013-03-04 22:52:00,
2013-03-04 18:02:00,31.0,18.0,-100.00,ENE,59,1.0,6.0,54,0.00,,,-99.99,,2013-03-04 23:02:00,
2013-03-04 18:11:00,31.0,18.0,-100.00,East,96,1.0,6.0,56,0.00,,,-99.99,,2013-03-04 23:11:00,
2013-03-04 18:22:00,29.0,18.0,-100.00,NE,45,1.0,6.0,60,0.00,,,-99.99,,2013-03-04 23:22:00,
2013-03-04 18:32:00,30.0,18.0,-100.00,East,93,0.0,6.0,59,0.00,,,-99.99,,2013-03-04 23:32:00,
2013-03-04 18:42:00,29.0,18.0,-100.00,SE,142,0.0,6.0,59,0.00,,,-99.99,,2013-03-04 23:42:00,
2013-03-04 18:52:00,30.0,18.0,-100.00,ESE,104,0.0,6.0,58,0.00,,,-99.99,,2013-03-04 23:52:00,
2013-03-04 19:02:00,28.0,16.0,-100.00,ENE,62,0.0,6.0,59,0.00,,,-99.99,,2013-03-05 00:02:00,
2013-03-04 19:12:00,28.0,16.0,-100.00,ESE,112,0.0,6.0,59,0.00,,,-99.99,,2013-03-05 00:12:00,
2013-03-04 19:22:00,28.0,18.0,-100.00,East,91,0.0,6.0,60,0.00,,,-99.99,,2013-03-05 00:22:00,
2013-03-04 19:32:00,27.0,16.0,-100.00,SSE,160,0.0,6.0,60,0.00,,,-99.99,,2013-03-05 00:32:00,
2013-03-04 19:42:00,27.0,18.0,-100.00,SE,135,0.0,6.0,64,0.00,,,-99.99,,2013-03-05 00:42:00,
2013-03-04 19:52:00,27.0,18.0,-100.00,SE,135,0.0,6.0,67,0.00,,,-99.99,,2013-03-05 00:52:00,
2013-03-04 20:02:00,28.0,21.0,-100.00,SE,135,0.0,6.0,71,0.00,,,-99.99,,2013-03-05 01:02:00,
2013-03-04 20:12:00,25.0,18.0,-100.00,SE,136,0.0,6.0,72,0.00,,,-99.99,,2013-03-05 01:12:00,
2013-03-04 20:22:00,28.0,21.0,-100.00,SE,142,0.0,6.0,75,0.00,,,-99.99,,2013-03-05 01:22:00,
2013-03-04 20:33:00,24.0,18.0,-100.00,ESE,108,0.0,6.0,73,0.00,,,-99.99,,2013-03-05 01:33:00,
2013-03-04 20:42:00,24.0,19.0,-100.00,ENE,72,0.0,6.0,76,0.00,,,-99.99,,2013-03-05 01:42:00,
2013-03-04 20:52:00,23.0,18.0,-100.00,ENE,72,0.0,6.0,76,0.00,,,-99.99,,2013-03-05 01:52:00,
2013-03-04 21:02:00,25.0,19.0,-100.00,SSW,194,0.0,6.0,77,0.00,,,-99.99,,2013-03-05 02:02:00,
2013-03-04 21:12:00,24.0,18.0,-100.00,SW,223,0.0,6.0,75,0.00,,,-99.99,,2013-03-05 02:12:00,
2013-03-04 21:22:00,25.0,19.0,-100.00,SSW,203,0.0,6.0,80,0.00,,,-99.99,,2013-03-05 02:22:00,
2013-03-04 21:32:00,24.0,19.0,-100.00,SW,234,0.0,6.0,78,0.00,,,-99.99,,2013-03-05 02:32:00,
2013-03-04 21:42:00,24.0,19.0,-100.00,NNW,338,0.0,6.0,80,0.00,,,-99.99,,2013-03-05 02:42:00,
2013-03-04 21:52:00,24.0,19.0,-100.00,WNW,296,0.0,6.0,81,0.00,,,-99.99,,2013-03-05 02:52:00,
2013-03-04 22:02:00,22.0,18.0,-100.00,WNW,296,0.0,6.0,81,0.00,,,-99.99,,2013-03-05 03:02:00,
2013-03-04 22:12:00,21.0,18.0,-100.00,WNW,296,0.0,6.0,81,0.00,,,-99.99,,2013-03-05 03:12:00,
2013-03-04 22:22:00,22.0,19.0,-100.00,NNW,345,0.0,6.0,82,0.00,,,-99.99,,2013-03-05 03:22:00,
2013-03-04 22:32:00,21.0,18.0,-100.00,WNW,295,0.0,6.0,82,0.00,,,-99.99,,2013-03-05 03:32:00,
2013-03-04 22:42:00,20.0,18.0,-100.00,West,279,0.0,6.0,84,0.00,,,-99.99,,2013-03-05 03:42:00,
2013-03-04 22:52:00,22.0,18.0,-100.00,West,279,0.0,6.0,84,0.00,,,-99.99,,2013-03-05 03:52:00,
2013-03-04 23:02:00,20.0,18.0,-100.00,West,279,0.0,6.0,84,0.00,,,-99.99,,2013-03-05 04:02:00,
2013-03-04 23:12:00,21.0,18.0,-100.00,West,278,0.0,6.0,85,0.00,,,-99.99,,2013-03-05 04:12:00,
2013-03-04 23:22:00,20.0,18.0,-100.00,SW,231,0.0,6.0,86,0.00,,,-99.99,,2013-03-05 04:22:00,
2013-03-04 23:32:00,20.0,18.0,-100.00,SW,230,0.0,6.0,88,0.00,,,-99.99,,2013-03-05 04:32:00,
2013-03-04 23:42:00,20.0,18.0,-100.00,SW,230,0.0,6.0,88,0.00,,,-99.99,,2013-03-05 04:42:00,
2013-03-04 23:52:00,20.0,18.0,-100.00,SW,230,0.0,6.0,88,0.00,,,-99.99,,2013-03-05 04:52:00,